Weather History for KLWB - February, 2015

Change the Weather History Date:

Thursday, February 5, 2015

  Actual Average Record
Temperature  
Mean Temperature 28 °F 30 °F  
Max Temperature 41 °F 41 °F 72 °F (2008)
Min Temperature 14 °F 20 °F -10 °F (1996)
Degree Days  
Heating Degree Days 37    
Month to date heating degree days 163  
Since 1 July heating degree days 3247  
Cooling Degree Days 0    
Month to date cooling degree days 0  
Year to date cooling degree days 0  
Moisture  
Dew Point 11 °F    
Average Humidity 57    
Maximum Humidity 75    
Minimum Humidity 39    
Precipitation  
Precipitation 0.00 in - 0.95 in (1960)
Snow  
Snow T in - - ()
Month to date snowfall T  
Since 1 July snowfall 2.0  
Snow Depth 0.00 in    
Sea Level Pressure  
Sea Level Pressure 30.10 in    
Wind  
Wind Speed 9 mph (NW)    
Max Wind Speed 16 mph    
Max Gust Speed 22 mph    
Visibility 9 miles    
Events Snow    
T = Trace of Precipitation, MM = Missing Value Source: NWS Daily Summary

Daily Weather History Graph

Daily Weather History Graph

Search for Another Location

Airport or City:

Trip Planner

Search our weather history database for the weather conditions in past years. The results will help you decide how hot, cold, wet, or windy it might be!

Date:

Astronomy

Feb. 05, 2015 Rise Set
Actual Time 7:22 AM EST 5:49 PM EST
Civil Twilight 6:54 AM EST 6:16 PM EST
Nautical Twilight 6:23 AM EST 6:48 PM EST
Astronomical Twilight 5:52 AM EST 7:18 PM EST
Moon 7:40 PM EST (2/5) 7:59 AM EST (2/5)
Length of Visible Light 11h 21m
Length of Day
10h 26m
Full, 97% of the Moon is Illuminated
Feb 5
Full
Feb 11
Last Quarter
Feb 18
New
Feb 25
First Quarter
Mar 5
Full

Hourly Weather History & Observations

Time (EST) Temp. Windchill Dew Point Humidity Pressure Visibility Wind Dir Wind Speed Gust Speed Precip Events Conditions
12:15 AM 38.3 °F 33.9 °F 18.3 °F 45% 29.95 in 10.0 mi SSW 5.8 mph - N/A   Mostly Cloudy
12:35 AM 37.8 °F 32.5 °F 17.6 °F 44% 29.94 in 10.0 mi SSW 6.9 mph - N/A   Scattered Clouds
12:55 AM 37.8 °F 33.3 °F 17.8 °F 44% 29.94 in 10.0 mi SSW 5.8 mph - N/A   Clear
1:15 AM 38.5 °F 35.0 °F 18.3 °F 44% 29.93 in 10.0 mi SW 4.6 mph - N/A   Mostly Cloudy
1:35 AM 38.5 °F 35.0 °F 17.8 °F 43% 29.92 in 10.0 mi SSW 4.6 mph - N/A   Mostly Cloudy
1:55 AM 38.3 °F 35.9 °F 16.9 °F 42% 29.91 in 10.0 mi SW 3.5 mph - N/A   Scattered Clouds
2:15 AM 39.4 °F 33.8 °F 16.5 °F 40% 29.91 in 10.0 mi WSW 8.1 mph - N/A   Scattered Clouds
2:35 AM 39.7 °F 35.6 °F 16.7 °F 39% 29.91 in 10.0 mi WSW 5.8 mph - N/A   Scattered Clouds
2:55 AM 40.3 °F 36.3 °F 17.1 °F 39% 29.91 in 10.0 mi West 5.8 mph - N/A   Mostly Cloudy
3:15 AM 40.6 °F 36.0 °F 18.7 °F 41% 29.92 in 10.0 mi WNW 6.9 mph - N/A   Overcast
3:35 AM 39.2 °F 34.2 °F 23.0 °F 52% 29.93 in 10.0 mi West 6.9 mph 17.3 mph N/A   Overcast
3:55 AM 37.6 °F 30.0 °F 26.4 °F 64% 29.94 in 10.0 mi West 11.5 mph 16.1 mph N/A   Overcast
4:15 AM 36.5 °F 29.7 °F 27.5 °F 70% 29.94 in 10.0 mi West 9.2 mph 16.1 mph N/A   Overcast
4:35 AM 35.6 °F 29.9 °F 28.0 °F 74% 29.94 in 10.0 mi WNW 6.9 mph - N/A Snow Light Snow
4:55 AM 35.2 °F 28.8 °F 28.4 °F 76% 29.95 in 10.0 mi NW 8.1 mph - N/A   Overcast
5:15 AM 34.5 °F 25.7 °F 24.8 °F 68% 29.96 in 10.0 mi NW 12.7 mph 21.9 mph N/A   Overcast
5:35 AM 32.7 °F 25.0 °F 23.9 °F 70% 29.97 in 10.0 mi WNW 9.2 mph 16.1 mph N/A   Scattered Clouds
5:55 AM 32.0 °F 24.2 °F 22.5 °F 68% 29.98 in 10.0 mi NW 9.2 mph - N/A   Scattered Clouds
6:15 AM 31.8 °F 22.8 °F 22.1 °F 67% 30.00 in 10.0 mi NNW 11.5 mph 16.1 mph N/A   Overcast
6:35 AM 29.8 °F 18.9 °F 19.8 °F 66% 30.01 in 10.0 mi NNW 15.0 mph 21.9 mph N/A   Overcast
6:55 AM 28.4 °F 17.5 °F 19.4 °F 69% 30.02 in 10.0 mi NW 13.8 mph 21.9 mph N/A   Overcast
7:15 AM 26.8 °F 14.9 °F 18.5 °F 71% 30.04 in 10.0 mi NW 15.0 mph 21.9 mph N/A   Overcast
7:35 AM 25.7 °F 15.7 °F 19.8 °F 78% 30.05 in 2.0 mi NW 10.4 mph - N/A Snow Light Snow
7:55 AM 25.7 °F 15.7 °F 18.9 °F 75% 30.06 in 1.8 mi NW 10.4 mph 21.9 mph N/A Snow Light Snow
8:15 AM 25.2 °F 13.3 °F 18.9 °F 77% 30.07 in 1.0 mi NNW 13.8 mph 21.9 mph N/A Snow Light Snow
8:35 AM 25.2 °F 13.3 °F 16.0 °F 68% 30.07 in 7.0 mi NW 13.8 mph 21.9 mph N/A Snow Light Snow
8:55 AM 25.5 °F 14.3 °F 14.0 °F 62% 30.08 in 10.0 mi NW 12.7 mph 20.7 mph N/A   Overcast
9:15 AM 24.6 °F 14.4 °F 16.5 °F 71% 30.09 in 4.0 mi North 10.4 mph 16.1 mph N/A Snow Light Snow
9:35 AM 23.5 °F 11.3 °F 14.2 °F 67% 30.10 in 3.0 mi NNW 13.8 mph 19.6 mph N/A Snow Light Snow
9:55 AM 23.9 °F 13.5 °F 13.3 °F 64% 30.11 in 5.0 mi NNW 10.4 mph 20.7 mph N/A Snow Light Snow
10:15 AM 23.9 °F 12.9 °F 11.3 °F 59% 30.11 in 10.0 mi North 11.5 mph 17.3 mph N/A Snow Light Snow
10:35 AM 24.6 °F 15.1 °F 12.2 °F 59% 30.12 in 7.0 mi NW 9.2 mph - N/A Snow Light Snow
10:55 AM 26.1 °F 15.6 °F 10.8 °F 52% 30.12 in 10.0 mi NW 11.5 mph 17.3 mph N/A   Overcast
11:15 AM 24.8 °F 14.0 °F 13.5 °F 62% 30.11 in 7.0 mi NNW 11.5 mph 17.3 mph N/A Snow Light Snow
11:35 AM 25.7 °F 14.0 °F 10.8 °F 53% 30.12 in 10.0 mi NW 13.8 mph 21.9 mph N/A   Mostly Cloudy
11:55 AM 25.5 °F 12.9 °F 9.3 °F 50% 30.12 in 10.0 mi NNW 16.1 mph 20.7 mph N/A   Scattered Clouds
12:15 PM 25.5 °F 13.3 °F 8.4 °F 48% 30.12 in 10.0 mi NW 15.0 mph 21.9 mph N/A   Mostly Cloudy
12:35 PM 25.0 °F 12.2 °F 6.3 °F 45% 30.13 in 10.0 mi NNW 16.1 mph 24.2 mph N/A   Mostly Cloudy
12:55 PM 25.2 °F 15.1 °F 6.8 °F 46% 30.12 in 10.0 mi NW 10.4 mph 20.7 mph N/A   Scattered Clouds
1:15 PM 24.4 °F 12.4 °F 7.3 °F 48% 30.13 in 10.0 mi NW 13.8 mph 19.6 mph N/A   Mostly Cloudy
1:35 PM 24.6 °F 12.7 °F 4.8 °F 43% 30.13 in 10.0 mi North 13.8 mph 18.4 mph N/A   Mostly Cloudy
1:55 PM 23.5 °F 10.8 °F 4.8 °F 45% 30.13 in 10.0 mi NNW 15.0 mph 21.9 mph N/A   Scattered Clouds
2:15 PM 23.5 °F 11.8 °F 5.7 °F 47% 30.14 in 10.0 mi NW 12.7 mph 19.6 mph N/A   Scattered Clouds
2:35 PM 23.5 °F 13.0 °F 4.1 °F 43% 30.15 in 10.0 mi NNW 10.4 mph 24.2 mph N/A   Mostly Cloudy
2:55 PM 24.3 °F 13.3 °F 5.5 °F 45% 30.15 in 10.0 mi NW 11.5 mph 20.7 mph N/A   Mostly Cloudy
3:15 PM 22.8 °F 11.5 °F 4.5 °F 45% 30.16 in 10.0 mi NW 11.5 mph 18.4 mph N/A   Scattered Clouds
3:35 PM 24.1 °F 13.7 °F 4.1 °F 42% 30.16 in 10.0 mi NW 10.4 mph 18.4 mph N/A   Scattered Clouds
3:55 PM 23.5 °F 12.4 °F 2.7 °F 41% 30.17 in 10.0 mi NW 11.5 mph 16.1 mph N/A   Clear
4:15 PM 23.7 °F 14.0 °F 2.8 °F 41% 30.17 in 10.0 mi NNW 9.2 mph 19.6 mph N/A   Clear
4:35 PM 23.0 °F 12.4 °F 1.4 °F 39% 30.17 in 10.0 mi NNW 10.4 mph - N/A   Clear
4:55 PM 22.6 °F 12.6 °F 1.4 °F 40% 30.17 in 10.0 mi NW 9.2 mph 16.1 mph N/A   Clear
5:15 PM 21.7 °F 11.5 °F 0.1 °F 39% 30.18 in 10.0 mi North 9.2 mph 17.3 mph N/A   Clear
5:35 PM 21.2 °F 12.6 °F -0.0 °F 40% 30.19 in 10.0 mi NNW 6.9 mph - N/A   Clear
5:55 PM 20.1 °F 11.3 °F -0.4 °F 41% 30.19 in 10.0 mi North 6.9 mph - N/A   Clear
6:15 PM 19.6 °F 10.6 °F 0.9 °F 44% 30.20 in 10.0 mi NNW 6.9 mph - N/A   Clear
6:35 PM 19.4 °F 9.5 °F 1.2 °F 45% 30.21 in 10.0 mi NW 8.1 mph - N/A   Clear
6:55 PM 19.0 °F 8.2 °F 1.8 °F 47% 30.21 in 10.0 mi NW 9.2 mph - N/A   Clear
7:15 PM 18.5 °F 7.5 °F 1.4 °F 47% 30.22 in 10.0 mi NNW 9.2 mph - N/A   Clear
7:35 PM 18.1 °F 11.3 °F 1.9 °F 49% 30.22 in 10.0 mi NNW 4.6 mph - N/A   Clear
7:55 PM 17.6 °F 12.3 °F 1.4 °F 49% 30.22 in 10.0 mi NNW 3.5 mph - N/A   Clear
8:15 PM 17.2 °F - 1.4 °F 50% 30.22 in 10.0 mi Calm Calm - N/A   Clear
8:35 PM 17.1 °F 11.7 °F 1.6 °F 51% 30.23 in 10.0 mi NNW 3.5 mph - N/A   Clear
8:55 PM 16.9 °F - 2.3 °F 53% 30.23 in 10.0 mi Calm Calm - N/A   Clear
9:15 PM 16.7 °F - 2.1 °F 53% 30.24 in 10.0 mi Calm Calm - N/A   Clear
9:35 PM 16.0 °F - 2.7 °F 56% 30.24 in 10.0 mi Calm Calm - N/A   Clear
9:55 PM 14.9 °F 7.5 °F 3.2 °F 60% 30.25 in 10.0 mi SW 4.6 mph - N/A   Clear
10:15 PM 16.3 °F 9.2 °F 3.0 °F 56% 30.25 in 10.0 mi WSW 4.6 mph - N/A   Clear
10:35 PM 16.0 °F 8.8 °F 3.2 °F 57% 30.26 in 10.0 mi WSW 4.6 mph - N/A   Clear
10:55 PM 15.8 °F 8.6 °F 3.2 °F 58% 30.26 in 10.0 mi WSW 4.6 mph - N/A   Clear
11:15 PM 15.8 °F 7.2 °F 3.0 °F 57% 30.26 in 10.0 mi West 5.8 mph - N/A   Clear
11:35 PM 15.3 °F 9.6 °F 3.0 °F 58% 30.26 in 10.0 mi WSW 3.5 mph - N/A   Clear
11:55 PM 15.3 °F 9.6 °F 3.0 °F 58% 30.25 in 10.0 mi WSW 3.5 mph - N/A   Clear